TimePST,TemperatureF,Dew PointF,Humidity,Sea Level PressureIn,VisibilityMPH,Wind Direction,Wind SpeedMPH,Gust SpeedMPH,PrecipitationIn,Events,Conditions,WindDirDegrees,DateUTC
12:56 AM,50.0,24.1,36,30.27,10.0,Calm,Calm,-,N/A,,Clear,0,2013-02-15 08:56:00
1:56 AM,50.0,24.1,36,30.27,10.0,Variable,5.8,-,N/A,,Clear,0,2013-02-15 09:56:00
2:56 AM,48.0,24.1,39,30.27,10.0,Calm,Calm,-,N/A,,Clear,0,2013-02-15 10:56:00
3:56 AM,48.0,23.0,37,30.28,10.0,SSE,4.6,-,N/A,,Clear,160,2013-02-15 11:56:00
4:56 AM,43.0,24.1,47,30.30,10.0,SW,5.8,-,N/A,,Clear,230,2013-02-15 12:56:00
5:56 AM,43.0,23.0,45,30.32,10.0,Calm,Calm,-,N/A,,Clear,0,2013-02-15 13:56:00
6:56 AM,48.9,21.9,35,30.33,10.0,Calm,Calm,-,N/A,,Clear,0,2013-02-15 14:56:00
7:56 AM,50.0,21.9,33,30.36,10.0,Variable,5.8,-,N/A,,Clear,0,2013-02-15 15:56:00
8:56 AM,54.0,21.0,28,30.37,10.0,NE,3.5,-,N/A,,Clear,50,2013-02-15 16:56:00
9:56 AM,57.0,21.0,25,30.37,10.0,East,5.8,-,N/A,,Clear,80,2013-02-15 17:56:00
10:56 AM,59.0,19.9,22,30.36,10.0,Variable,3.5,-,N/A,,Clear,0,2013-02-15 18:56:00
11:56 AM,61.0,18.0,19,30.33,10.0,Variable,3.5,-,N/A,,Clear,0,2013-02-15 19:56:00
12:56 PM,62.1,18.0,18,30.31,10.0,Calm,Calm,-,N/A,,Clear,0,2013-02-15 20:56:00
1:56 PM,66.0,18.0,16,30.29,10.0,Variable,3.5,-,N/A,,Clear,0,2013-02-15 21:56:00
2:56 PM,64.9,18.0,16,30.27,10.0,South,6.9,-,N/A,,Clear,190,2013-02-15 22:56:00
3:56 PM,66.9,16.0,14,30.26,10.0,Calm,Calm,-,N/A,,Clear,0,2013-02-15 23:56:00
4:56 PM,66.0,16.0,15,30.27,10.0,West,3.5,-,N/A,,Clear,280,2013-02-16 00:56:00
5:56 PM,63.0,17.1,17,30.27,10.0,Calm,Calm,-,N/A,,Clear,0,2013-02-16 01:56:00
6:56 PM,61.0,18.0,19,30.28,10.0,SW,5.8,-,N/A,,Clear,220,2013-02-16 02:56:00
7:56 PM,55.0,19.0,24,30.30,10.0,WSW,6.9,-,N/A,,Clear,240,2013-02-16 03:56:00
8:56 PM,53.1,19.9,27,30.31,10.0,South,3.5,-,N/A,,Clear,190,2013-02-16 04:56:00
9:56 PM,52.0,19.9,28,30.32,10.0,SSW,10.4,-,N/A,,Clear,200,2013-02-16 05:56:00
10:56 PM,51.1,19.9,29,30.32,10.0,SSW,6.9,-,N/A,,Clear,210,2013-02-16 06:56:00
11:56 PM,48.9,19.9,32,30.32,10.0,SW,8.1,-,N/A,,Clear,220,2013-02-16 07:56:00